Pratt, KS

9:53 AM CDT on March 24, 2017 (GMT -0500)
Pratt Industrial

Weather History for KPTT - December, 2012

Change the Weather History Date:

Sunday, December 9, 2012

  Actual Average (KP28) Record (KP28)
Temperature  
Mean Temperature 31 °F -  
Max Temperature 41 °F 46 °F 74 °F (1939)
Min Temperature 19 °F 25 °F -4 °F (1919)
Degree Days  
Heating Degree Days 34    
Moisture  
Dew Point 17 °F    
Average Humidity 58    
Maximum Humidity 100    
Minimum Humidity 37    
Precipitation  
Precipitation 0.00 in - - ()
Sea Level Pressure  
Sea Level Pressure 30.03 in    
Wind  
Wind Speed 16 mph (NNW)    
Max Wind Speed 32 mph    
Max Gust Speed 40 mph    
Visibility 9 miles    
Events Fog    
Averages and records for this station are not official NWS values.
T = Trace of Precipitation, MM = Missing Value Source: NWS Daily Summary

Daily Weather History Graph

Daily Weather History Graph

Search for Another Location

Airport or City:

Trip Planner

Search our weather history database for the weather conditions in past years. The results will help you decide how hot, cold, wet, or windy it might be!

Date:

Astronomy

Dec. 09, 2012 Rise Set
Actual Time 7:38 AM CST 5:16 PM CST
Civil Twilight 7:09 AM CST 5:45 PM CST
Nautical Twilight 6:36 AM CST 6:18 PM CST
Astronomical Twilight 6:05 AM CST 6:50 PM CST
Moon 3:16 AM CST (12/9) 2:21 PM CST (12/9)
Length of Visible Light 10h 35m
Length of Day
9h 37m
Waning Crescent, 18% of the Moon is Illuminated
Dec 9
Waning Crescent
Dec 13
New
Dec 19
First Quarter
Dec 28
Full
Jan 4
Last Quarter

Hourly Weather History & Observations

Time (CST) Temp. Windchill Dew Point Humidity Pressure Visibility Wind Dir Wind Speed Gust Speed Precip Events Conditions
12:15 AM 41.0 °F 38.0 °F 39.2 °F 93% 29.85 in 2.0 mi NNE 4.6 mph - N/A   Overcast
12:35 AM 41.0 °F 39.0 °F 39.2 °F 93% 29.85 in 2.0 mi NNE 3.5 mph - N/A   Overcast
12:55 AM 41.0 °F 37.1 °F 39.2 °F 93% 29.84 in 2.0 mi North 5.8 mph - N/A   Overcast
1:15 AM 39.2 °F 35.0 °F 37.4 °F 93% 29.83 in 1.8 mi NNW 5.8 mph - N/A   Overcast
1:35 AM 37.4 °F 32.1 °F 37.4 °F 100% 29.84 in 0.8 mi North 6.9 mph - N/A   Overcast
1:55 AM 37.4 °F 32.1 °F 37.4 °F 100% 29.85 in 0.2 mi NW 6.9 mph - N/A Fog Fog
2:15 AM 37.4 °F 32.1 °F 37.4 °F 100% 29.85 in 1.8 mi NW 6.9 mph - N/A   Mist
2:55 AM 39.2 °F 33.0 °F 37.4 °F 93% 29.86 in 4.0 mi NNW 9.2 mph - N/A   Clear
3:15 AM 39.2 °F 32.5 °F 37.4 °F 93% 29.86 in 5.0 mi NW 10.4 mph - N/A   Clear
3:35 AM 39.2 °F 30.5 °F 37.4 °F 93% 29.86 in 5.0 mi NNW 16.1 mph - N/A   Clear
3:55 AM 37.4 °F 29.3 °F 37.4 °F 100% 29.87 in 4.0 mi NW 12.7 mph - N/A   Scattered Clouds
4:15 AM 37.4 °F 29.3 °F 35.6 °F 93% 29.87 in 5.0 mi NNW 12.7 mph - N/A   Scattered Clouds
4:35 AM 35.6 °F 28.0 °F 35.6 °F 100% 29.88 in 5.0 mi NNW 10.4 mph - N/A   Clear
4:55 AM 37.4 °F 30.3 °F 33.8 °F 87% 29.89 in 7.0 mi NNW 10.4 mph - N/A   Clear
5:15 AM 37.4 °F 29.3 °F 32.0 °F 81% 29.90 in 10.0 mi NNW 12.7 mph - N/A   Clear
5:35 AM 35.6 °F 25.5 °F 32.0 °F 87% 29.90 in 10.0 mi NNW 17.3 mph 21.9 mph N/A   Clear
5:55 AM 35.6 °F 25.5 °F 28.4 °F 75% 29.91 in 10.0 mi NNW 17.3 mph 24.2 mph N/A   Clear
6:15 AM 35.6 °F 25.2 °F 26.6 °F 70% 29.92 in 10.0 mi North 18.4 mph - N/A   Clear
6:35 AM 35.6 °F 24.2 °F 26.6 °F 70% 29.92 in 10.0 mi North 21.9 mph 26.5 mph N/A   Clear
6:55 AM 37.4 °F 27.8 °F 26.6 °F 65% 29.93 in 10.0 mi North 17.3 mph - N/A   Clear
7:15 AM 37.4 °F 27.2 °F 26.6 °F 65% 29.93 in 10.0 mi North 19.6 mph - N/A   Clear
7:35 AM 37.4 °F 26.6 °F 23.0 °F 56% 29.94 in 10.0 mi North 21.9 mph 28.8 mph N/A   Clear
7:55 AM 37.4 °F 27.2 °F 23.0 °F 56% 29.94 in 10.0 mi North 19.6 mph - N/A   Scattered Clouds
8:15 AM 35.6 °F 23.2 °F 21.2 °F 56% 29.94 in 10.0 mi North 26.5 mph 33.4 mph N/A   Clear
8:35 AM 35.6 °F 24.2 °F 19.4 °F 52% 29.96 in 10.0 mi North 21.9 mph 33.4 mph N/A   Clear
8:55 AM 35.6 °F 23.7 °F 17.6 °F 48% 29.98 in 10.0 mi NNW 24.2 mph - N/A   Clear
9:15 AM 33.8 °F 21.0 °F 17.6 °F 52% 30.00 in 7.0 mi NNW 25.3 mph 34.5 mph N/A   Clear
9:35 AM 33.8 °F 21.3 °F 17.6 °F 52% 30.02 in 10.0 mi NNW 24.2 mph 32.2 mph N/A   Clear
9:55 AM 32.0 °F 17.6 °F 15.8 °F 51% 30.03 in 10.0 mi NNW 29.9 mph 35.7 mph N/A   Clear
10:15 AM 32.0 °F 18.1 °F 12.2 °F 44% 30.04 in 10.0 mi North 27.6 mph 40.3 mph N/A   Clear
10:35 AM 32.0 °F 18.1 °F 14.0 °F 48% 30.06 in 10.0 mi NNW 27.6 mph 33.4 mph N/A   Clear
10:55 AM 32.0 °F 17.9 °F 12.2 °F 44% 30.07 in 10.0 mi North 28.8 mph 35.7 mph N/A   Clear
11:15 AM 32.0 °F 18.6 °F 12.2 °F 44% 30.08 in 10.0 mi NNW 25.3 mph 32.2 mph N/A   Clear
11:35 AM 32.0 °F 18.6 °F 12.2 °F 44% 30.07 in 10.0 mi North 25.3 mph 32.2 mph N/A   Clear
11:55 AM 30.2 °F 16.2 °F 10.4 °F 44% 30.07 in 10.0 mi North 25.3 mph 34.5 mph N/A   Clear
12:15 PM 30.2 °F 16.8 °F 10.4 °F 44% 30.07 in 10.0 mi NNW 23.0 mph 34.5 mph N/A   Clear
12:35 PM 30.2 °F 15.4 °F 10.4 °F 44% 30.07 in 7.0 mi North 28.8 mph 35.7 mph N/A   Clear
12:55 PM 30.2 °F 16.5 °F 10.4 °F 44% 30.07 in 10.0 mi North 24.2 mph 32.2 mph N/A   Clear
1:15 PM 28.4 °F 12.3 °F 10.4 °F 47% 30.05 in 10.0 mi NNW 32.2 mph 39.1 mph N/A   Clear
1:35 PM 28.4 °F 13.8 °F 10.4 °F 47% 30.05 in 10.0 mi NNW 25.3 mph 33.4 mph N/A   Clear
1:55 PM 28.4 °F 13.3 °F 8.6 °F 43% 30.07 in 10.0 mi NNW 27.6 mph 34.5 mph N/A   Clear
2:15 PM 28.4 °F 14.1 °F 8.6 °F 43% 30.08 in 10.0 mi NNW 24.2 mph 34.5 mph N/A   Clear
2:35 PM 28.4 °F 14.1 °F 8.6 °F 43% 30.07 in 10.0 mi NNW 24.2 mph 35.7 mph N/A   Clear
2:55 PM 28.4 °F 14.1 °F 8.6 °F 43% 30.08 in 10.0 mi NNW 24.2 mph 29.9 mph N/A   Clear
3:15 PM 28.4 °F 15.1 °F 8.6 °F 43% 30.08 in 10.0 mi NNW 20.7 mph 27.6 mph N/A   Clear
3:35 PM 28.4 °F 13.8 °F 8.6 °F 43% 30.08 in 10.0 mi NNW 25.3 mph 28.8 mph N/A   Clear
3:55 PM 28.4 °F 13.3 °F 6.8 °F 40% 30.08 in 10.0 mi NNW 27.6 mph 33.4 mph N/A   Clear
4:15 PM 28.4 °F 13.3 °F 6.8 °F 40% 30.08 in 10.0 mi North 27.6 mph 33.4 mph N/A   Clear
4:35 PM 28.4 °F 13.3 °F 5.0 °F 37% 30.09 in 10.0 mi NNW 27.6 mph 34.5 mph N/A   Clear
4:55 PM 28.4 °F 13.0 °F 5.0 °F 37% 30.09 in 10.0 mi NNW 28.8 mph 35.7 mph N/A   Clear
5:15 PM 28.4 °F 15.8 °F 5.0 °F 37% 30.10 in 10.0 mi NNW 18.4 mph 29.9 mph N/A   Clear
5:35 PM 28.4 °F 15.4 °F 5.0 °F 37% 30.11 in 10.0 mi NNW 19.6 mph 32.2 mph N/A   Clear
5:55 PM 28.4 °F 15.1 °F 5.0 °F 37% 30.12 in 10.0 mi NNW 20.7 mph 26.5 mph N/A   Clear
6:15 PM 28.4 °F 14.1 °F 5.0 °F 37% 30.12 in 10.0 mi NNW 24.2 mph 32.2 mph N/A   Clear
6:35 PM 28.4 °F 14.4 °F 5.0 °F 37% 30.13 in 10.0 mi North 23.0 mph 28.8 mph N/A   Clear
6:55 PM 28.4 °F 15.1 °F 6.8 °F 40% 30.14 in 10.0 mi NNW 20.7 mph 25.3 mph N/A   Clear
7:15 PM 26.6 °F 13.8 °F 6.8 °F 43% 30.15 in 10.0 mi NNW 17.3 mph - N/A   Clear
7:35 PM 26.6 °F 12.4 °F 5.0 °F 40% 30.16 in 10.0 mi NNW 21.9 mph 29.9 mph N/A   Clear
7:55 PM 26.6 °F 11.1 °F 6.8 °F 43% 30.16 in 10.0 mi North 26.5 mph 34.5 mph N/A   Clear
8:15 PM 26.6 °F 11.4 °F 6.8 °F 43% 30.17 in 10.0 mi North 25.3 mph 36.8 mph N/A   Clear
8:35 PM 24.8 °F 8.4 °F 6.8 °F 46% 30.19 in 10.0 mi NNW 27.6 mph 35.7 mph N/A   Clear
8:55 PM 23.0 °F 5.4 °F 6.8 °F 50% 30.20 in 10.0 mi North 29.9 mph 36.8 mph N/A   Clear
9:15 PM 23.0 °F 6.0 °F 6.8 °F 50% 30.21 in 10.0 mi North 27.6 mph 34.5 mph N/A   Clear
9:35 PM 21.2 °F 5.2 °F 6.8 °F 54% 30.21 in 10.0 mi North 21.9 mph 31.1 mph N/A   Clear
9:55 PM 21.2 °F 6.4 °F 6.8 °F 54% 30.20 in 10.0 mi North 18.4 mph 25.3 mph N/A   Clear
10:35 PM 21.2 °F 4.9 °F 6.8 °F 54% 30.19 in 10.0 mi NNW 23.0 mph 29.9 mph N/A   Clear
10:55 PM 21.2 °F 6.0 °F 6.8 °F 54% 30.19 in 10.0 mi North 19.6 mph 29.9 mph N/A   Clear
11:15 PM 21.2 °F 4.9 °F 6.8 °F 54% 30.17 in 10.0 mi North 23.0 mph 29.9 mph N/A   Clear
11:35 PM 21.2 °F 6.0 °F 6.8 °F 54% 30.19 in 10.0 mi NNW 19.6 mph 26.5 mph N/A   Clear
11:55 PM 19.4 °F 3.2 °F 5.0 °F 54% 30.20 in 10.0 mi NNW 20.7 mph 32.2 mph N/A   Clear